Weather History for KCMA - May, 2013

Change the Weather History Date:

Sunday, May 26, 2013

  Actual Average Record
Temperature  
Mean Temperature 65 °F 62 °F  
Max Temperature 74 °F 71 °F 93 °F (1968)
Min Temperature 56 °F 54 °F 43 °F (1980)
Degree Days  
Heating Degree Days 0 3  
Month to date heating degree days 4 109  
Since 1 July heating degree days 1424 1929  
Cooling Degree Days 0 0  
Month to date cooling degree days 60 0  
Year to date cooling degree days 87 20  
Growing Degree Days 14 (Base 50)    
Moisture  
Dew Point 52 °F    
Average Humidity 60    
Maximum Humidity 73    
Minimum Humidity 46    
Precipitation  
Precipitation 0.00 in 0.00 in 0.01 in (1966)
Month to date precipitation 0.08 0.30  
Year to date precipitation 2.15 10.92  
Since 1 July precipitation 4.86  
Sea Level Pressure  
Sea Level Pressure 30.04 in    
Wind  
Wind Speed 5 mph (SW)    
Max Wind Speed 15 mph    
Max Gust Speed 21 mph    
Visibility 10 miles    
Events      
T = Trace of Precipitation, MM = Missing Value Source: NWS Daily Summary

Daily Weather History Graph

Daily Weather History Graph

Search for Another Location

Airport or City:

Trip Planner

Search our weather history database for the weather conditions in past years. The results will help you decide how hot, cold, wet, or windy it might be!

Date:

Astronomy

May. 26, 2013 Rise Set
Actual Time 5:47 AM PDT 7:59 PM PDT
Civil Twilight 5:19 AM PDT 8:28 PM PDT
Nautical Twilight 4:44 AM PDT 9:02 PM PDT
Astronomical Twilight 4:06 AM PDT 9:40 PM PDT
Moon 9:52 PM PDT (5/26) 7:21 AM PDT (5/26)
Length of Visible Light 15h 08m
Length of Day
14h 11m
Waning Gibbous, 96% of the Moon is Illuminated
May 26
Waning Gibbous
May 31
Last Quarter
Jun 8
New
Jun 16
First Quarter
Jun 23
Full

Hourly Weather History & Observations

Time (PDT) Temp. Dew Point Humidity Pressure Visibility Wind Dir Wind Speed Gust Speed Precip Events Conditions
12:55 AM 60.1 °F 50.0 °F 69% 30.02 in 10.0 mi Calm Calm - N/A   Clear
1:55 AM 59.0 °F 50.0 °F 72% 30.01 in 10.0 mi ENE 3.5 mph - N/A   Clear
2:55 AM 57.9 °F 48.9 °F 72% 30.01 in 10.0 mi NE 3.5 mph - N/A   Clear
3:55 AM 57.9 °F 48.9 °F 72% 30.01 in 9.0 mi Calm Calm - N/A   Clear
4:55 AM 57.0 °F 48.0 °F 72% 30.01 in 9.0 mi Calm Calm - N/A   Clear
5:55 AM 55.9 °F 46.0 °F 69% 30.01 in 9.0 mi NE 3.5 mph - N/A   Clear
6:55 AM 57.9 °F 48.0 °F 70% 30.04 in 9.0 mi Calm Calm - N/A   Clear
7:55 AM 64.0 °F 50.0 °F 60% 30.05 in 10.0 mi WNW 3.5 mph - N/A   Clear
8:55 AM 66.0 °F 51.1 °F 59% 30.06 in 10.0 mi West 4.6 mph - N/A   Partly Cloudy
9:55 AM 69.1 °F 53.1 °F 57% 30.06 in 10.0 mi SSE 4.6 mph - N/A   Scattered Clouds
10:55 AM 71.1 °F 53.1 °F 53% 30.07 in 10.0 mi West 5.8 mph - N/A   Clear
11:07 AM 71.6 °F 53.6 °F 53% 30.04 in 10.0 mi SW 9.2 mph - N/A   Scattered Clouds
11:55 AM 71.1 °F 53.1 °F 53% 30.07 in 10.0 mi SSW 10.4 mph - N/A   Partly Cloudy
12:55 PM 72.0 °F 53.1 °F 51% 30.07 in 10.0 mi SW 12.7 mph - N/A   Partly Cloudy
1:55 PM 72.0 °F 53.1 °F 51% 30.07 in 10.0 mi SW 10.4 mph 17.3 mph N/A   Clear
2:55 PM 72.0 °F 54.0 °F 53% 30.06 in 10.0 mi SSW 11.5 mph - N/A   Clear
3:55 PM 73.0 °F 53.1 °F 49% 30.05 in 10.0 mi SW 11.5 mph - N/A   Clear
4:55 PM 73.0 °F 52.0 °F 48% 30.04 in 10.0 mi SW 9.2 mph - N/A   Clear
5:55 PM 71.1 °F 51.1 °F 49% 30.02 in 10.0 mi SSW 10.4 mph - N/A   Clear
6:55 PM 69.1 °F 50.0 °F 51% 30.02 in 10.0 mi SSW 6.9 mph - N/A   Clear
7:55 PM 66.0 °F 53.1 °F 63% 30.03 in 10.0 mi SW 5.8 mph - N/A   Clear
8:55 PM 64.0 °F 55.0 °F 73% 30.04 in 10.0 mi Calm Calm - N/A   Clear
9:55 PM 63.0 °F 54.0 °F 72% 30.04 in 10.0 mi Calm Calm - N/A   Clear
10:55 PM 63.0 °F 54.0 °F 72% 30.04 in 10.0 mi Calm Calm - N/A   Clear
11:55 PM 62.1 °F 53.1 °F 72% 30.03 in 10.0 mi Calm Calm - N/A   Clear